Regional Weather Roundup
Issued by NWS

Home | Current Version | Previous Version | Graphics & Text | Print | Product List | Glossary On
Versions: 1 2 3 4 5 6 7 8 9 10 11 12 13 14 15 16 17 18 19 20 21 22 23 24 25 26 27 28 29 30 31 32 33 34 35 36 37 38 39 40 41 42 43 44 45 46 47 48 49 50
000
ASUS43 KMPX 010210
RWRMN
WEATHER ROUNDUP FOR MINNESOTA
NATIONAL WEATHER SERVICE TWIN CITIES/CHANHASSEN MN
900 PM CDT TUE JUN 30 2015


NOTE: "FAIR" INDICATES FEW OR NO CLOUDS BELOW 12,000 FEET WITH NO
SIGNIFICANT WEATHER AND/OR OBSTRUCTIONS TO VISIBILITY. N/A MEANS
CURRENT SKY AND/OR WEATHER CONDITIONS ARE NOT AVAILABLE.

MNZ060>063-068>070-010300-
   Twin Cities Metro

CITY           SKY/WX    TMP DP  RH WIND       PRES   REMARKS
TWIN CITIES    PTCLDY    70  55  59 NE9       29.93R
ST PAUL        PTCLDY    69  56  62 NE7       29.94R
CRYSTAL        PTCLDY    69  53  56 E6        29.92S
BLAINE         PTCLDY    68  55  64 CALM      29.94R
LAKEVILLE      MOCLDY    64  59  82 CALM      29.94R
EDEN PRAIRIE   PTCLDY    70  55  59 NE8       29.92R
SOUTH ST PAUL  PTCLDY    69  54  58 CALM      29.94R
LAKE ELMO      FAIR      64  55  72 NE5       29.96R
$$
MNZ001>005-007-008-013>017-022>024-027-028-010300-
   Northwest Minnesota

CITY           SKY/WX    TMP DP  RH WIND       PRES   REMARKS
BEMIDJI        MOCLDY    66  55  68 CALM      29.93S
HALLOCK        MOCLDY    72  61  68 SW3       29.90S
ROSEAU         MOCLDY    66  59  77 CALM      29.94R
WARROAD        MOCLDY    66  54  63 E3        29.94S
THIEF RVR FALL MOCLDY    70  57  64 CALM      29.93S
CROOKSTON      CLOUDY    70  57  64 CALM      29.92S
FOSSTON        CLOUDY    64  52  63 CALM      29.94S
DETROIT LAKES  MOCLDY    70  57  64 CALM      29.94R
MOORHEAD       CLOUDY    70  63  78 CALM      29.91R
PARK RAPIDS    MOCLDY    72  55  55 E3        29.93S
$$
MNZ006-009>011-018-025>026-010300-
   North Central Minnesota

CITY           SKY/WX    TMP DP  RH WIND       PRES   REMARKS
BAUDETTE       MOCLDY    66  56  70 CALM      29.94S
FLAG ISLAND    MOCLDY    66  55  68 CALM      29.93S
INTL FALLS     MOCLDY    61  55  81 CALM      29.95S
WASKISH        PTCLDY    66  55  68 NE6       29.94R
BIG FORK       MOCLDY    63  57  82 CALM      29.95R
LONGVILLE      PTCLDY    63  59  88 CALM      29.94S
GRAND RAPIDS   MOCLDY    63  55  77 CALM      29.95R
CRANE LAKE     MOCLDY    57  55  94 CALM      29.97S
COOK           CLOUDY    61  54  77 CALM      29.96S
$$
MNZ012-019>021-037-010300-
   Northeast Minnesota

CITY           SKY/WX    TMP DP  RH WIND       PRES   REMARKS
DULUTH         MOCLDY    54  46  74 E7        29.97S
ELY            MOCLDY    61  48  63 CALM      29.96S
HIBBING        MOCLDY    62  54  74 NE3       29.95S
EVELETH        MOCLDY    61  52  72 SE5       29.97R
DULUTH HARBOR  MOCLDY    57  52  82 NE8       29.98S
TWO HARBORS    MOCLDY    55  50  82 NE2       29.97S
SILVER BAY     PTCLDY    52  48  87 CALM      29.97S
GRAND MARAIS     N/A     50  46  86 CALM      29.99R
G MARAIS ARPRT CLEAR     46  41  81 CALM      30.00R
$$
MNZ029>031-032-039>041-046>048-054>057-064-010300-
   West Central Minnesota

CITY           SKY/WX    TMP DP  RH WIND       PRES   REMARKS
FERGUS FALLS   MOCLDY    70  61  73 CALM      29.91S
WHEATON        MOCLDY    64  61  88 SE3       29.92F
MORRIS         CLOUDY    70  63  78 CALM      29.90F
ALEXANDRIA     CLOUDY    70  56  61 SE5       29.94F
ELBOW LAKE     FAIR      68  62  82 CALM      29.91F
WADENA           N/A     70  61  73 CALM      29.92F
GLENWOOD       CLOUDY    68  61  77 CALM      29.94S
APPLETON       MOCLDY    70  61  73 CALM      29.91S
BENSON         CLOUDY    66  63  88 CALM      29.92S
ORTONVILLE     PTCLDY    68  61  77 CALM      29.91F
MADISON        MOCLDY    70  61  73 CALM      29.91F
WILLMAR        FAIR      72  64  78 CALM      29.94S
$$
MNZ033>034-036-042>043-049>051-058-059-010300-
   Central Minnesota

CITY           SKY/WX    TMP DP  RH WIND       PRES   REMARKS
ST CLOUD       MOCLDY    67  58  72 SE5       29.93S
SAUK CENTRE    FAIR      69  58  68 E5        29.93F
PAYNESVILLE    CLOUDY    67  56  69 E5        29.93F
AITKIN         CLEAR     63  55  77 CALM      29.93R
PINE RIVER       N/A     64  57  77 CALM      29.97S
BRAINERD       PTCLDY    64  58  80 S3        29.94R
STAPLES        MOCLDY    70  54  56 CALM      29.93F
LONG PRAIRIE   FAIR      66  59  77 CALM      29.94S
LITTLE FALLS   MOCLDY    66  54  63 CALM      29.94S
LITCHFIELD     CLOUDY    70  63  78 E5        29.93F
BUFFALO        PTCLDY    69  58  68 CALM      29.95R
MAPLE LAKE     PTCLDY    69  62  78 CALM      29.94S
$$
MNZ037-044-045-052-053-010300-
   East Central Minnesota

CITY           SKY/WX    TMP DP  RH WIND       PRES   REMARKS
PRINCETON      PTCLDY    68  57  68 CALM      29.94S
MORA           PTCLDY    63  55  77 CALM      29.97R
CAMBRIDGE      PTCLDY    70  55  60 E5        29.93S
RUSH CITY      PTCLDY    64  55  70 CALM      29.95S
MOOSE LAKE     PTCLDY    61  55  82 E3        29.94S
HINCKLEY       FAIR      63  54  72 CALM      29.95S
CLOQUET        MOCLDY    55  46  71 E5        29.97S
MCGREGOR       PTCLDY    61  55  82 SE5       29.95S
$$
MNZ071>073-080-081-089-090-097-098-010300-
   Southwest Minnesota

CITY           SKY/WX    TMP DP  RH WIND       PRES   REMARKS
MONTEVIDEO     CLOUDY    68  61  77 CALM      29.93S
GRANITE FALLS  CLOUDY    69  62  76 CALM      29.93S
CANBY          CLOUDY    68  63  83 E5        29.92F
MARSHALL       CLOUDY    70  61  73 CALM        N/A
REDWOOD FALLS  MOCLDY    70  61  73 CALM      29.92R
OLIVIA         CLOUDY    68  59  73 CALM      29.92S
PIPESTONE      CLOUDY    70  63  78 SE7       29.92F
WINDOM         CLOUDY    66  63  88 CALM      29.94S
WORTHINGTON    CLOUDY    68  61  77 E6        29.94R
JACKSON        CLOUDY    68  63  83 NE5       29.94S
TRACY          CLOUDY    69  65  85 CALM      29.93R
SLAYTON        CLOUDY    68  63  84 CALM      29.94S
$$
MNZ065>067-074>077-082>085-091>093-010300-
   South Central Minnesota

CITY           SKY/WX    TMP DP  RH WIND       PRES   REMARKS
MANKATO        MOCLDY    72  59  64 E5        29.93R
NEW ULM        MOCLDY    70  59  68 E3        29.92S
ST JAMES       CLOUDY    70  64  83 CALM      29.93S
FAIRMONT       CLOUDY    70  57  64 CALM      29.92S
GLENCOE        MOCLDY    68  62  80 CALM      29.93S
FARIBAULT      MOCLDY    66  57  72 CALM      29.94R
OWATONNA       MOCLDY    70  55  60 CALM      29.94R
WASECA         MOCLDY    68  59  73 E3        29.95R
ALBERT LEA     MOCLDY    66  61  82 CALM      29.94R
$$
MNZ078>079-086>088-094>096-010300-
   Southeast Minnesota

CITY           SKY/WX    TMP DP  RH WIND       PRES   REMARKS
ROCHESTER      PTCLDY    64  56  75 NE6       29.94R
RED WING       PTCLDY    66  55  68 NE3       29.93R
STANTON        PTCLDY    66  57  72 CALM      29.93R
DODGE CENTER   PTCLDY    66  57  72 NE3       29.94S
WINONA         PTCLDY    68  61  77 CALM      29.92S
AUSTIN         MOCLDY    66  57  72 CALM      29.94R
PRESTON        PTCLDY    63  55  75 NE3       29.94R
$$
ABBREVIATIONS USED IN REMARKS
   TC - TEMPERATURES IN CELSIUS
  WCI - WIND CHILL INDEX
   HX - HEAT INDEX
  VSB - VISIBILITY
$$



USA.gov is the U.S. government's official web portal to all federal, state and local government web resources and services.